Stündliche Wetter Holmsbu

Heute, 16 Juni, Mittwoch

Zeit Temperatur Niederschläge Wind Luftdruck Luftfeuchtigkeit
00:00 +10°C° 0 mm 1 m/S 746 mmHg 67%
01:00 +9°C° 0 mm 1 m/S 746 mmHg 68%
02:00 +9°C° 0 mm 1 m/S 745 mmHg 69%
03:00 +9°C° 0 mm 1 m/S 745 mmHg 69%
04:00 +9°C° 0 mm 1 m/S 745 mmHg 69%
05:00 +11°C° 0 mm 1 m/S 745 mmHg 64%
06:00 +13°C° 0 mm 1 m/S 745 mmHg 59%
07:00 +14°C° 0 mm 1 m/S 745 mmHg 53%
08:00 +16°C° 0 mm 2 m/S 746 mmHg 47%
09:00 +18°C° 0 mm 2 m/S 746 mmHg 40%
10:00 +19°C° 0 mm 3 m/S 746 mmHg 33%
11:00 +20°C° 0 mm 4 m/S 746 mmHg 35%
12:00 +21°C° 0 mm 5 m/S 746 mmHg 37%
13:00 +22°C° 0 mm 6 m/S 746 mmHg 39%
14:00 +21°C° 0 mm 6 m/S 746 mmHg 43%
15:00 +20°C° 0 mm 6 m/S 746 mmHg 47%
16:00 +20°C° 0 mm 6 m/S 746 mmHg 51%
17:00 +19°C° 0 mm 6 m/S 746 mmHg 55%
18:00 +17°C° 0 mm 5 m/S 746 mmHg 59%
19:00 +16°C° 0 mm 5 m/S 746 mmHg 62%
20:00 +15°C° 0 mm 4 m/S 746 mmHg 67%
21:00 +14°C° 0 mm 4 m/S 746 mmHg 71%
22:00 +13°C° 0 mm 4 m/S 746 mmHg 75%
23:00 +12°C° 0 mm 4 m/S 747 mmHg 77%

Morgen, 17 Juni, Donnerstag

Zeit Temperatur Niederschläge Wind Luftdruck Luftfeuchtigkeit
00:00 +12°C° 0 mm 3 m/S 747 mmHg 79%
01:00 +11°C° 0 mm 3 m/S 747 mmHg 81%
02:00 +11°C° 0 mm 3 m/S 747 mmHg 83%
03:00 +11°C° 0 mm 3 m/S 747 mmHg 84%
04:00 +10°C° 0 mm 2 m/S 747 mmHg 86%
05:00 +12°C° 0 mm 3 m/S 747 mmHg 77%
06:00 +14°C° 0 mm 3 m/S 747 mmHg 68%
07:00 +17°C° 0 mm 3 m/S 747 mmHg 59%
08:00 +18°C° 0 mm 3 m/S 747 mmHg 55%
09:00 +20°C° 0 mm 4 m/S 747 mmHg 51%
10:00 +21°C° 0 mm 4 m/S 747 mmHg 48%
11:00 +22°C° 0 mm 4 m/S 747 mmHg 48%
12:00 +22°C° 0 mm 4 m/S 747 mmHg 48%
13:00 +23°C° 0 mm 4 m/S 747 mmHg 48%
14:00 +23°C° 0 mm 4 m/S 747 mmHg 50%
15:00 +23°C° 0 mm 4 m/S 746 mmHg 51%
16:00 +23°C° 0 mm 4 m/S 746 mmHg 52%
17:00 +22°C° 0 mm 4 m/S 746 mmHg 59%
18:00 +21°C° 0 mm 3 m/S 745 mmHg 66%
19:00 +20°C° 0 mm 3 m/S 745 mmHg 73%
20:00 +19°C° 0.2 mm 3 m/S 744 mmHg 79%
21:00 +18°C° 0.2 mm 3 m/S 744 mmHg 85%
22:00 +17°C° 0.2 mm 3 m/S 743 mmHg 92%
23:00 +17°C° 0.3 mm 4 m/S 743 mmHg 93%

übermorgen, 18 Juni, Freitag

Zeit Temperatur Niederschläge Wind Luftdruck Luftfeuchtigkeit
00:00 +17°C° 0.3 mm 4 m/S 742 mmHg 95%
01:00 +17°C° 0.3 mm 5 m/S 742 mmHg 97%
02:00 +17°C° 0 mm 4 m/S 742 mmHg 97%
03:00 +17°C° 0 mm 4 m/S 742 mmHg 98%
04:00 +17°C° 0 mm 3 m/S 742 mmHg 98%
05:00 +16°C° 0 mm 3 m/S 742 mmHg 97%
06:00 +16°C° 0 mm 3 m/S 742 mmHg 96%
07:00 +16°C° 0 mm 3 m/S 743 mmHg 96%
08:00 +17°C° 0 mm 3 m/S 743 mmHg 92%
09:00 +18°C° 0 mm 3 m/S 743 mmHg 89%
10:00 +19°C° 0 mm 3 m/S 743 mmHg 86%
11:00 +21°C° 0 mm 3 m/S 744 mmHg 73%
12:00 +23°C° 0 mm 4 m/S 744 mmHg 61%
13:00 +26°C° 0 mm 4 m/S 744 mmHg 48%
14:00 +25°C° 0 mm 4 m/S 744 mmHg 48%
15:00 +25°C° 0 mm 4 m/S 744 mmHg 47%
16:00 +23°C° 0 mm 4 m/S 744 mmHg 46%
17:00 +22°C° 0 mm 4 m/S 744 mmHg 51%
18:00 +21°C° 0 mm 3 m/S 744 mmHg 57%
19:00 +19°C° 0 mm 2 m/S 745 mmHg 62%
20:00 +18°C° 0 mm 2 m/S 745 mmHg 69%
21:00 +16°C° 0 mm 1 m/S 745 mmHg 76%
22:00 +14°C° 0 mm 1 m/S 746 mmHg 83%
23:00 +14°C° 0 mm 1 m/S 746 mmHg 83%

19 Juni, Samstag

Zeit Temperatur Niederschläge Wind Luftdruck Luftfeuchtigkeit
00:00 +13°C° 0 mm 2 m/S 747 mmHg 83%
01:00 +13°C° 0 mm 2 m/S 747 mmHg 83%
02:00 +12°C° 0 mm 3 m/S 747 mmHg 82%
03:00 +11°C° 0 mm 3 m/S 748 mmHg 82%
04:00 +11°C° 0 mm 3 m/S 748 mmHg 81%
05:00 +12°C° 0 mm 4 m/S 748 mmHg 78%
06:00 +12°C° 0 mm 4 m/S 748 mmHg 75%
07:00 +12°C° 0 mm 4 m/S 748 mmHg 72%
08:00 +12°C° 0.4 mm 3 m/S 748 mmHg 79%
09:00 +11°C° 0.4 mm 3 m/S 748 mmHg 86%
10:00 +11°C° 0.4 mm 3 m/S 747 mmHg 93%
11:00 +11°C° 1.5 mm 3 m/S 747 mmHg 94%
12:00 +11°C° 1.5 mm 3 m/S 747 mmHg 95%
13:00 +11°C° 1.5 mm 4 m/S 746 mmHg 96%
14:00 +11°C° 0.7 mm 4 m/S 746 mmHg 96%
15:00 +11°C° 0.7 mm 4 m/S 745 mmHg 96%
16:00 +12°C° 0.7 mm 4 m/S 745 mmHg 96%
17:00 +11°C° 0.2 mm 4 m/S 745 mmHg 96%
18:00 +11°C° 0.2 mm 4 m/S 744 mmHg 96%
19:00 +11°C° 0.2 mm 4 m/S 744 mmHg 96%
20:00 +11°C° 0.5 mm 4 m/S 744 mmHg 97%
21:00 +11°C° 0.5 mm 4 m/S 743 mmHg 97%
22:00 +11°C° 0.5 mm 4 m/S 743 mmHg 97%
23:00 +11°C° 0.8 mm 3 m/S 743 mmHg 97%

20 Juni, Sonntag

Zeit Temperatur Niederschläge Wind Luftdruck Luftfeuchtigkeit
00:00 +11°C° 0.8 mm 3 m/S 743 mmHg 97%
01:00 +11°C° 0.8 mm 3 m/S 744 mmHg 97%
02:00 +10°C° 0 mm 3 m/S 744 mmHg 97%
03:00 +10°C° 0 mm 2 m/S 744 mmHg 97%
04:00 +11°C° 0 mm 1 m/S 745 mmHg 97%
05:00 +12°C° 0 mm 1 m/S 745 mmHg 93%
06:00 +13°C° 0 mm 1 m/S 745 mmHg 89%
07:00 +13°C° 0 mm 0 m/S 746 mmHg 85%
08:00 +16°C° 0 mm 1 m/S 746 mmHg 75%
09:00 +19°C° 0 mm 1 m/S 746 mmHg 65%
10:00 +21°C° 0 mm 1 m/S 746 mmHg 55%
11:00 +20°C° 0 mm 2 m/S 746 mmHg 55%
12:00 +21°C° 0 mm 2 m/S 747 mmHg 55%
13:00 +21°C° 0 mm 3 m/S 747 mmHg 55%
14:00 +21°C° 0 mm 3 m/S 747 mmHg 55%
15:00 +21°C° 0 mm 3 m/S 747 mmHg 55%
16:00 +21°C° 0 mm 3 m/S 746 mmHg 55%
17:00 +20°C° 0 mm 2 m/S 746 mmHg 60%
18:00 +19°C° 0 mm 2 m/S 747 mmHg 65%
19:00 +18°C° 0 mm 2 m/S 747 mmHg 70%
20:00 +16°C° 0 mm 1 m/S 747 mmHg 76%
21:00 +15°C° 0 mm 1 m/S 747 mmHg 82%
22:00 +14°C° 0 mm 1 m/S 747 mmHg 87%
23:00 +14°C° 0 mm 1 m/S 747 mmHg 84%

21 Juni, Montag

Zeit Temperatur Niederschläge Wind Luftdruck Luftfeuchtigkeit
00:00 +14°C° 0 mm 1 m/S 746 mmHg 82%
01:00 +14°C° 0 mm 1 m/S 746 mmHg 79%
02:00 +14°C° 0 mm 1 m/S 746 mmHg 79%
03:00 +14°C° 0 mm 2 m/S 746 mmHg 80%
04:00 +14°C° 0 mm 2 m/S 745 mmHg 80%
05:00 +15°C° 0 mm 2 m/S 745 mmHg 80%
06:00 +16°C° 0 mm 2 m/S 745 mmHg 79%
07:00 +16°C° 0 mm 2 m/S 745 mmHg 79%
08:00 +17°C° 0.1 mm 2 m/S 745 mmHg 76%
09:00 +18°C° 0.1 mm 2 m/S 745 mmHg 74%
10:00 +20°C° 0.1 mm 2 m/S 745 mmHg 71%
11:00 +21°C° 0.2 mm 2 m/S 744 mmHg 70%
12:00 +23°C° 0.2 mm 1 m/S 744 mmHg 70%
13:00 +24°C° 0.2 mm 1 m/S 744 mmHg 69%
14:00 +22°C° 1.1 mm 1 m/S 744 mmHg 78%
15:00 +21°C° 1.1 mm 1 m/S 743 mmHg 88%
16:00 +20°C° 1.1 mm 1 m/S 743 mmHg 97%
17:00 +20°C° 0.8 mm 1 m/S 743 mmHg 97%
18:00 +20°C° 0.8 mm 1 m/S 742 mmHg 97%
19:00 +20°C° 0.8 mm 1 m/S 742 mmHg 97%
20:00 +20°C° 0.9 mm 1 m/S 742 mmHg 98%
21:00 +19°C° 0.9 mm 1 m/S 742 mmHg 98%
22:00 +19°C° 0.9 mm 1 m/S 741 mmHg 99%
23:00 +19°C° 1 mm 1 m/S 741 mmHg 99%
Mehr zeigen

Wir brauchen deine Erlaubnis

Meteoprog und unser Service Anbieter werden persönliche Daten aufbewahren, so wie Cookies, Geräte Bezeichnung oder ähnliche Technologien von deinem Gerät und Prozess, so wie Persönliche Daten Inhalte und Werbungen, genauso wie social Media und den Verkehr zu analysieren.

  • Aufbewahrung und/oder Zugang zu deiner Geräte Informationen.

    Cookies, Geräte Bezeichnung oder andere Informationen, können aufbewahrt oder Zugang zu deinem Gerät erhalten, für den Grund, der oben angegeben wird.

  • Personalisierte Werbung und Inhalte, Messungen, Einblick in das Publikum und Produkt Entwicklung.

    Werbungen und Inhalte können personalisiert werden, basierend auf ein Profil. Mehr Daten können besser personalisierte Werbungen und Inhalte hinzufügen. Werbung und Inhalte können gezeigt und gemessen werden. Einblicke über das Publikum, welche die Werbung gesehen haben und den Inhalt, können abgeleitet werden. So wie Daten können genutzt werden, um es zu verbessern oder die Benutzer Erfahrung zu verbessern das System und die Software.

Wenn du “Ich stimme zu” klickst, erlaubst du uns, die Cookies zu benutzen die Geräte Bezeichnung, den Web oder ähnliche Technologien zu benutzen. Deine Settings, können in deinem Gerät bei deinem Browser geändert werden.

Für den bestimmten Zweck, berechtigten Interessen beruhen darauf, mehr als auf den Inhalt. Du kannst mehr darüber in unseren Privaten und Cookie Politik lesen.